[[{"header":{"parameterUnit":"m.s-1","parameterCategory":1,"la1":30.2991,"la2":30.254,"lo1":-89.0895,"lo2":-89.0444,"dy":0.0017,"dx":0.0017,"nx":28,"ny":28,"refTime":"2024-02-04T03:00:00:Z","depth":0,"parameterNumber":2,"parameterNumberName":"U-component_of_WINDS"},"data":[0,0,0,0,0,0,0,0,0,0,0,0,0,0,0,0,0,0,0,0,0,0,0,0,0,0,0,0,0,0,0,0,0,0,0,0,0,0,0,0,0,0,0,0,0,0,0,0,0,0,0,0,0,0,0,0,0,0,-4.5554,-4.5558,0,-4.5954,-4.5959,-4.5963,-4.6133,-4.6133,-4.6132,-4.6131,-4.6528,-4.6539,-4.655,0,0,0,0,0,0,0,0,0,0,0,0,0,-4.4926,-4.4937,-4.5554,-4.5559,-4.5564,-4.5954,-4.5959,-4.5965,-4.6134,-4.6133,-4.6132,-4.6131,-4.6525,-4.6538,-4.6551,0,0,0,0,0,0,0,0,0,0,0,0,0,-4.5249,-4.494,-4.5553,-4.5695,-4.5712,-4.5953,-4.5959,-4.5966,-4.6134,-4.6133,-4.6132,-4.6131,-4.652,-4.6537,-4.6553,-4.6677,0,0,-4.6605,-4.6612,0,0,0,0,0,0,0,0,-4.5231,-4.5272,-4.5669,-4.5686,-4.5705,-4.5993,-4.5884,-4.6204,-4.6134,-4.5973,-4.6131,-4.613,-4.635,-4.6381,-4.6458,-4.6696,-4.6713,-4.6606,-4.6616,-4.6623,-4.6628,0,0,0,0,0,0,0,-4.5208,-4.5256,-4.5712,-4.5675,-4.5697,-4.5736,-4.5781,-4.5945,-4.6162,-4.5987,-4.6001,-4.6046,-4.636,-4.6441,-4.6468,-4.6719,-4.6606,-4.662,-4.6631,-4.6637,-4.7084,-4.7086,0,0,0,0,0,0,-4.5164,-4.5236,-4.5699,-4.5724,-4.5461,-4.5748,-4.5799,-4.5902,-4.6161,-4.62,-4.6047,-4.6053,-4.6413,-4.6449,-4.6483,-4.6649,-4.6623,-4.6639,-4.6649,-4.7082,-4.7084,-4.7086,0,0,0,0,0,0,-4.515,-4.5204,-4.5683,-4.5484,-4.5548,-4.5761,-4.5875,-4.591,-4.5992,-4.6206,-4.6245,-4.6091,-4.6414,-4.6459,-4.663,-4.6665,-4.6647,-4.6662,-4.708,-4.7083,-4.7085,-4.6978,0,0,0,0,0,0,-4.5131,-4.5198,-4.5248,-4.5484,-4.5558,-4.5825,-4.5877,-4.5919,-4.6022,-4.6034,-4.6258,-4.6294,-4.6416,-4.6604,-4.6647,-4.6688,-4.6675,-4.7078,-4.7081,-4.7085,-4.698,-4.6977,-4.6975,0,0,0,0,0,-4.5108,-4.5198,-4.525,-4.5305,-4.5627,-4.5827,-4.5869,-4.6012,-4.6024,-4.6076,-4.6215,-4.6287,-4.6655,-4.662,-4.6669,-4.6716,-4.7076,-4.708,-4.7084,-4.6981,-4.6978,-4.6975,0,0,0,0,0,0,-4.4955,-4.5232,-4.5292,-4.5462,-4.5621,-4.5855,-4.5925,-4.6003,-4.6157,-4.6161,-4.6329,-4.6378,-4.6534,-4.6643,-4.6599,-4.6852,-4.6871,-4.6885,-4.6776,-4.6774,-4.6772,-4.6742,-4.6689,0,0,0,0,0,-4.4942,-4.5085,-4.5318,-4.5445,-4.5522,-4.571,-4.5802,-4.59,-4.6068,-4.6134,-4.6285,-4.6443,-4.6595,-4.6691,-4.6842,-4.6997,-4.7049,-4.7054,-4.7051,-4.7048,-4.7058,-4.7151,-4.7156,-4.71,-4.71,-4.7099,0,0,-4.4914,-4.5083,-4.5162,-4.5419,-4.5553,-4.5695,-4.5764,-4.591,-4.6017,-4.6155,-4.6328,-4.6444,-4.6631,-4.6796,-4.6875,-4.689,-4.7086,-4.7053,-4.7049,-4.7061,-4.7156,-4.7161,-4.7165,-4.7102,-4.7102,-4.7101,0,0,-4.4937,-4.5079,-4.5204,-4.5339,-4.5544,-4.5669,-4.5698,-4.5924,-4.6008,-4.6185,-4.6294,-4.6421,-4.6678,-4.6809,-4.6908,-4.6988,-4.706,-4.7032,-4.7018,-4.7107,-4.7112,-4.7117,-4.7146,-4.7154,-4.7041,-4.7041,-4.7041,0,-4.4875,-4.5098,-4.5256,-4.5399,-4.5509,-4.5648,-4.5774,-4.5895,-4.6136,-4.6208,-4.6223,-4.6553,-4.6688,-4.6887,-4.6907,-4.6983,-4.7021,-4.7006,-4.7099,-4.7106,-4.7112,-4.7142,-4.7153,-4.7037,-4.7037,-4.7038,-4.7038,0,-4.5013,-4.5166,-4.5241,-4.5478,-4.5596,-4.5728,-4.5905,-4.6005,-4.6094,-4.6217,-4.6396,-4.6565,-4.6755,-4.681,-4.6894,-4.7022,-4.7025,-4.7067,-4.709,-4.711,-4.7141,-4.7154,-4.703,-4.7032,-4.7033,-4.7034,0,0,-4.4946,-4.5275,-4.5299,-4.541,-4.5649,-4.5769,-4.5908,-4.61,-4.6183,-4.6346,-4.6467,-4.6685,-4.6728,-4.6841,-4.6943,-4.7021,-4.7076,-4.7055,-4.7061,-4.7053,-4.7228,-4.7194,-4.7205,-4.7126,-4.7129,-4.7131,-4.7212,0,-4.5002,-4.5264,-4.5413,-4.5611,-4.5755,-4.5891,-4.6014,-4.6172,-4.6292,-4.6429,-4.656,-4.6713,-4.6757,-4.6827,-4.6911,-4.7051,-4.7113,-4.7047,-4.7238,-4.7243,-4.7186,-4.7221,-4.7185,-4.7253,-4.7225,-4.7227,-4.7229,0,-4.5101,-4.5269,-4.5483,-4.5711,-4.5777,-4.5884,-4.6074,-4.6204,-4.6387,-4.6469,-4.6599,-4.6702,-4.6854,-4.6866,-4.7078,-4.703,-4.7118,-4.7199,-4.7205,-4.7227,-4.7236,-4.7243,-4.7278,-4.7287,-4.7249,-4.7248,-4.7246,0,-4.5033,-4.5311,-4.5477,-4.5568,-4.5837,-4.591,-4.6024,-4.6207,-4.6314,-4.6479,-4.655,-4.6727,-4.6824,-4.6959,-4.7107,-4.7103,-4.7305,-4.7329,-4.7376,-4.7372,-4.741,-4.7405,-4.7458,-4.7467,-4.7467,-4.7467,-4.7466,0,-4.5079,-4.5205,-4.5451,-4.5552,-4.5698,-4.5868,-4.6006,-4.6131,-4.6293,-4.642,-4.6548,-4.6663,-4.6853,-4.6992,-4.7108,-4.7267,-4.7309,-4.7378,-4.7408,-4.7367,-4.7358,-4.7425,-4.7424,-4.747,-4.7469,-4.7468,-4.7468,0,-4.5026,-4.5196,-4.5386,-4.5628,-4.5692,-4.5788,-4.5994,-4.6097,-4.6226,-4.6385,-4.6432,-4.6633,-4.6804,-4.6967,-4.7192,-4.7272,-4.743,-4.7468,-4.7369,-4.7385,-4.7423,-4.7417,-4.752,-4.7543,-4.7535,-4.7535,-4.7535,0,-4.5044,-4.5146,-4.5401,-4.5498,-4.5612,-4.5765,-4.5877,-4.6049,-4.6159,-4.6379,-4.6455,-4.6637,-4.6791,-4.7057,-4.7221,-4.7396,-4.7439,-4.7464,-4.7466,-4.7423,-4.744,-4.7432,-4.7444,-4.7459,-4.7458,-4.7457,-4.7457,0,-4.5059,-4.514,-4.5299,-4.5488,-4.562,-4.5776,-4.5936,-4.6007,-4.6208,-4.6326,-4.6505,-4.6625,-4.6861,-4.7039,-4.7234,-4.7349,-4.7436,-4.7456,-4.7476,-4.7435,-4.7373,-4.7408,-4.736,-4.7452,-4.7452,-4.7453,-4.7453,-4.7453,-4.5043,-4.5141,-4.5338,-4.5511,-4.5651,-4.5799,-4.591,-4.6055,-4.6209,-4.6417,-4.6508,-4.6689,-4.6873,-4.7145,-4.726,-4.7403,-4.7423,-4.7451,-4.7459,-4.7463,-4.7455,-4.7352,-4.7439,-4.7439,-4.7439,-4.744,-4.744,0,-4.5066,-4.5201,-4.5359,-4.5582,-4.5719,-4.5796,-4.5978,-4.6085,-4.6245,-4.6411,-4.6563,-4.6769,-4.6944,-4.7125,-4.731,-4.7389,-4.7434,-4.7432,-4.7427,-4.7453,-4.7426,-4.7391,-4.7393,-4.7393,-4.7393,-4.7393,-4.7393,-4.7393,-4.5093,-4.5264,-4.5369,-4.561,-4.5744,-4.5926,-4.6024,-4.6161,-4.6295,-4.6522,-4.667,-4.6789,-4.6961,-4.7161,-4.7324,-4.7373,-4.7435,-4.7421,-4.748,-4.7452,-4.7454,-4.7456,-4.7424,-4.7433,-4.7433,-4.7496,-4.7496,-4.7497]},{"header":{"parameterUnit":"m.s-1","parameterCategory":1,"la1":30.2991,"la2":30.254,"lo1":-89.0895,"lo2":-89.0444,"dy":0.0017,"dx":0.0017,"nx":28,"ny":28,"refTime":"2024-02-04T03:00:00:Z","depth":0,"parameterNumber":3,"parameterNumberName":"V-component_of_WINDS"},"data":[0,0,0,0,0,0,0,0,0,0,0,0,0,0,0,0,0,0,0,0,0,0,0,0,0,0,0,0,0,0,0,0,0,0,0,0,0,0,0,0,0,0,0,0,0,0,0,0,0,0,0,0,0,0,0,0,0,0,4.9923,4.9926,0,5.0186,5.0189,5.0191,5.0309,5.0308,5.0308,5.0308,5.0559,5.0565,5.0572,0,0,0,0,0,0,0,0,0,0,0,0,0,4.9508,4.9515,4.9923,4.9926,4.993,5.0185,5.0189,5.0192,5.0309,5.0308,5.0308,5.0308,5.0556,5.0565,5.0573,0,0,0,0,0,0,0,0,0,0,0,0,0,4.972,4.9517,4.9923,5.0019,5.0031,5.0184,5.0189,5.0193,5.0309,5.0308,5.0308,5.0308,5.0554,5.0564,5.0574,5.0646,0,0,5.0606,5.061,0,0,0,0,0,0,0,0,4.9708,4.9736,5.0002,5.0013,5.0026,5.0215,5.0135,5.0344,5.0309,5.0203,5.0308,5.0307,5.0443,5.0463,5.0512,5.0658,5.0669,5.0607,5.0613,5.0617,5.062,0,0,0,0,0,0,0,4.9693,4.9725,5.0026,5.0005,5.002,5.0044,5.0074,5.0175,5.0321,5.0212,5.0221,5.0251,5.045,5.0502,5.0519,5.0672,5.0606,5.0616,5.0622,5.0626,5.0892,5.0893,0,0,0,0,0,0,4.9665,4.9712,5.0018,5.0034,4.9863,5.0052,5.0086,5.0154,5.0321,5.0346,5.0251,5.0256,5.0484,5.0507,5.0528,5.0626,5.0617,5.0627,5.0633,5.0891,5.0892,5.0893,0,0,0,0,0,0,4.9656,4.9692,5.0008,4.9876,4.9918,5.006,5.0136,5.0159,5.0212,5.0351,5.0376,5.0279,5.0485,5.0514,5.0618,5.0636,5.0632,5.0641,5.089,5.0892,5.0893,5.0819,0,0,0,0,0,0,4.9643,4.9687,4.972,4.9876,4.9925,5.0097,5.0137,5.0165,5.0232,5.024,5.0384,5.0407,5.0487,5.0602,5.0628,5.065,5.0649,5.0889,5.0891,5.0892,5.082,5.0818,5.0815,0,0,0,0,0,4.9628,4.9684,4.9721,4.9757,4.9969,5.0098,5.0125,5.0221,5.0233,5.0264,5.0354,5.0402,5.063,5.0611,5.0642,5.0667,5.0888,5.089,5.0892,5.0822,5.0818,5.0815,0,0,0,0,0,0,4.9518,4.9706,4.9749,4.9858,4.9962,5.0117,5.016,5.0214,5.0312,5.0315,5.0425,5.0456,5.0551,5.0619,5.0595,5.0747,5.0763,5.0771,5.0699,5.0697,5.0694,5.0675,5.0658,0,0,0,0,0,4.9508,4.9603,4.9759,4.984,4.9891,5.0016,5.0076,5.0142,5.0251,5.0294,5.0391,5.0491,5.0586,5.0645,5.0739,5.0831,5.0864,5.0864,5.0861,5.0858,5.0863,5.0918,5.092,5.0899,5.0899,5.0899,0,0,4.9485,4.9599,4.9651,4.9821,4.9909,5.0001,5.0052,5.0145,5.0213,5.0306,5.0413,5.0488,5.0606,5.0705,5.0753,5.0765,5.0877,5.0861,5.0857,5.0864,5.092,5.0922,5.0924,5.0901,5.09,5.09,0,0,4.9491,4.9587,4.9667,4.9757,4.9893,4.9977,4.9995,5.0144,5.02,5.031,5.0383,5.0461,5.0621,5.0704,5.0767,5.0808,5.0856,5.0835,5.082,5.0873,5.0874,5.0876,5.0891,5.0895,5.084,5.0839,5.0839,0,4.9443,4.959,4.9699,4.9791,4.9863,4.9959,5.0038,5.0117,5.0274,5.0319,5.0332,5.0538,5.0624,5.0744,5.0755,5.0802,5.0825,5.0818,5.0866,5.0869,5.0873,5.0888,5.0893,5.0836,5.0837,5.0837,5.0837,0,4.9525,4.9625,4.9672,4.983,4.9907,4.999,5.0109,5.0173,5.0232,5.0314,5.0424,5.0532,5.0651,5.0684,5.074,5.0813,5.0817,5.0846,5.0865,5.087,5.0886,5.0893,5.0831,5.0833,5.0834,5.0834,0,0,4.9466,4.9688,4.9703,4.9777,4.9935,5.0012,5.01,5.0223,5.0276,5.038,5.0455,5.0591,5.0621,5.0692,5.0758,5.0804,5.0831,5.0829,5.0833,5.0825,5.0918,5.0895,5.09,5.0865,5.0866,5.0867,5.0909,0,4.9494,4.9664,4.9766,4.9891,4.9984,5.0078,5.0155,5.0258,5.0336,5.0423,5.0507,5.0602,5.0634,5.0678,5.0728,5.0817,5.0851,5.0816,5.0932,5.0935,5.09,5.0909,5.0885,5.0918,5.0916,5.0917,5.0918,0,4.9548,4.966,4.9796,4.9949,4.9991,5.0059,5.0181,5.0264,5.0382,5.0436,5.0518,5.0586,5.0679,5.0691,5.082,5.0793,5.0847,5.0898,5.0901,5.0915,5.0926,5.0922,5.0931,5.0936,5.0928,5.0928,5.0927,0,4.9493,4.9675,4.9782,4.9842,5.0021,5.0067,5.0142,5.0261,5.0329,5.0434,5.048,5.0591,5.0651,5.0735,5.083,5.083,5.0949,5.0968,5.0993,5.0991,5.1013,5.101,5.103,5.1047,5.1047,5.1047,5.1047,0,4.9513,4.9592,4.9761,4.9826,4.9917,5.0033,5.0118,5.0201,5.0306,5.0386,5.0471,5.0543,5.0665,5.0751,5.0825,5.0921,5.0947,5.099,5.1009,5.0983,5.0977,5.1019,5.1018,5.1049,5.1048,5.1048,5.1048,0,4.9465,4.9581,4.9704,4.9866,4.9909,4.9969,5.0106,5.017,5.0255,5.0355,5.0385,5.0516,5.0622,5.0727,5.0866,5.0916,5.101,5.1035,5.0972,5.0983,5.1002,5.0999,5.1048,5.1061,5.1069,5.1069,5.1069,0,4.947,4.9535,4.9707,4.977,4.9846,4.9945,5.0018,5.0133,5.0204,5.0346,5.0393,5.0507,5.0604,5.0768,5.0872,5.098,5.1008,5.1019,5.1024,5.0997,5.1009,5.1004,5.1011,5.1014,5.1014,5.1013,5.1013,0,4.9467,4.9523,4.9627,4.9753,4.9839,4.9941,5.0046,5.0091,5.0226,5.03,5.0414,5.049,5.0637,5.0748,5.0869,5.0942,5.0999,5.1011,5.1023,5.0996,5.0957,5.0979,5.0964,5.1009,5.1009,5.1009,5.101,5.101,4.9446,4.951,4.9642,4.9756,4.9849,4.9946,5.0016,5.0113,5.0211,5.0345,5.0405,5.0519,5.0636,5.0806,5.0878,5.0966,5.098,5.0996,5.1,5.1002,5.0997,5.0944,5.0987,5.0988,5.0988,5.0988,5.0988,0,4.9448,4.9539,4.9644,4.9792,4.9881,4.9935,5.0054,5.0123,5.0225,5.0332,5.0429,5.0558,5.0668,5.0783,5.0898,5.0946,5.0975,5.0972,5.0969,5.0985,5.0977,5.0956,5.0947,5.0947,5.0947,5.0947,5.0947,5.0947,4.9459,4.957,4.9642,4.9798,4.9888,5.0006,5.0069,5.0158,5.0245,5.0389,5.0483,5.056,5.067,5.0794,5.0896,5.0927,5.0964,5.0954,5.0991,5.0982,5.0985,5.0987,5.0968,5.0961,5.0961,5.0992,5.0992,5.0992]}]]